User: anonymous   Login
Location: Caltech
(34.1382°N, 118.1253°W)
Time: 08:10:27
(UTC-08:00)
Language:

Iridium 68 - Orbit

View from above orbital plane
View from above orbital plane
View from above satellite
View from above satellite

Ground track
Ground track

The orbit data is extracted from the following two-line orbital elements,

1 25291U 98021G   14329.49315277  .00000636  00000-0  22004-3 0   353
2 25291 086.3977 254.6644 0002057 100.9317 259.2110 14.34224016871022
Epoch (UTC): 25 November 2014 11:50:08
Eccentricity: 0.0002057
inclination: 86.3977°
perigee height: 776 km
apogee height: 779 km
right ascension of ascending node: 254.6644°
argument of perigee: 100.9317°
revolutions per day: 14.34224016
mean anomaly at epoch: 259.2110°
orbit number at epoch: 87102

The dashed part of the orbit path shows where the satellite is in the earth's shadow,  

DLR